This is the latest recevied weather packets stored in our database for station/object KG5MMT-12. If no packets are shown the sender has not sent any weather packets the latest 1 day(s).
| Time | Temp. | Humidity | Pressure | Rain* | Wind** | Luminosity | Snow |
|---|---|---|---|---|---|---|---|
| 1778006029 | 15.56° C | 40% | 0 hPa | 0 mm | 0.89 m/s, 340° | - | - |
| 1778005729 | 15.56° C | 39% | 0 hPa | 0 mm | 3.58 m/s, 310° | - | - |
| 1778005429 | 16.11° C | 40% | 0 hPa | 0 mm | 2.24 m/s, 267° | - | - |
| 1778005129 | 16.11° C | 38% | 0 hPa | 0 mm | 1.79 m/s, 307° | - | - |
| 1778004829 | 16.11° C | 39% | 0 hPa | 0 mm | 1.34 m/s, 288° | - | - |
| 1778004529 | 16.11° C | 38% | 0 hPa | 0 mm | 2.68 m/s, 288° | - | - |
| 1778004229 | 16.11° C | 39% | 0 hPa | 0 mm | 0.45 m/s, 196° | - | - |
| 1778003930 | 15.56° C | 41% | 0 hPa | 0 mm | 0 m/s | - | - |
| 1778003630 | 15° C | 41% | 0 hPa | 0 mm | 1.34 m/s, 292° | - | - |
| 1778003329 | 15° C | 40% | 0 hPa | 0 mm | 0.45 m/s, 198° | - | - |
| 1778003029 | 15° C | 41% | 0 hPa | 0 mm | 0 m/s | - | - |
| 1778002730 | 14.44° C | 41% | 0 hPa | 0 mm | 0.45 m/s, 229° | - | - |
| 1778002429 | 15° C | 40% | 0 hPa | 0 mm | 0.45 m/s, 299° | - | - |
| 1778002130 | 15° C | 40% | 0 hPa | 0 mm | 0 m/s | - | - |
| 1778001830 | 15° C | 40% | 0 hPa | 0 mm | 1.79 m/s, 180° | - | - |
| 1778001530 | 15° C | 41% | 0 hPa | 0 mm | 3.13 m/s, 267° | - | - |
| 1778001230 | 15° C | 39% | 0 hPa | 0 mm | 1.34 m/s, 16° | - | - |
| 1778000930 | 15° C | 41% | 0 hPa | 0 mm | 0.45 m/s, 63° | - | - |
| 1778000630 | 14.44° C | 40% | 0 hPa | 0 mm | 0 m/s | - | - |
| 1778000330 | 14.44° C | 41% | 0 hPa | 0 mm | 0 m/s | - | - |
| 1778000030 | 13.89° C | 42% | 0 hPa | 0 mm | 1.34 m/s, 77° | - | - |
| 1777999730 | 13.33° C | 43% | 0 hPa | 0 mm | 0.45 m/s, 196° | - | - |
| 1777999430 | 13.33° C | 43% | 0 hPa | 0 mm | 1.79 m/s, 350° | - | - |
| 1777999130 | 13.33° C | 42% | 0 hPa | 0 mm | 1.79 m/s, 272° | - | - |
| 1777998830 | 13.33° C | 42% | 0 hPa | 0 mm | 3.58 m/s, 338° | - | - |
* Rain latest hour (hover to see other rain measurements)
** Current wind speed in m/s (hover to see current wind gust speed)